Dewpoint
56 56 56 57 57 57 57 57 58 58 58 58 58 59 59 58 59 59 59 59 59 60 60 60 61 61 61 61 61 61 60 55 55 48 47 43 51 65 64 65 62 63 60 39 37 31 32 32 30 29 33 36 39 35 43 37 41 39 32 29 26 28 25 27 19 21 19 18 14 17 16 16 16 17 19 22 22 23 22 21 22 22 21 22 23 29 44 47
56 56 56 56 57 57 57 57 57 58 58 58 58 58 59 58 58 59 59 59 59 59 60 60 60 61 61 61 61 61 58 55 47 45 41 52 63 65 65 64 63 63 54 38 33 30 29 29 29 29 35 33 45 35 40 39 39 35 33 30 26 28 26 24 21 15 14 13 18 19 18 18 17 17 19 16 17 18 18 19 19 18 18 18 18 26 43 46
55 56 56 56 56 57 57 57 57 57 58 58 58 58 58 58 58 58 58 58 59 59 59 60 60 60 61 61 61 60 56 53 49 41 43 62 66 66 65 64 62 61 37 37 34 29 27 26 27 27 35 28 35 32 38 37 35 35 30 28 28 31 25 23 18 16 15 18 20 22 21 21 20 18 20 20 16 20 19 19 20 19 18 18 17 36 42 44
55 56 56 56 56 56 56 57 57 57 57 58 58 57 58 58 58 58 58 58 58 58 59 59 60 60 60 61 61 58 56 47 38 38 48 66 65 66 65 63 62 59 43 39 36 31 30 28 25 27 32 29 30 40 35 35 33 35 30 29 28 27 24 21 19 18 18 24 22 23 22 21 21 18 21 18 19 19 19 20 20 18 19 18 17 21 40 41
55 55 56 56 56 56 57 57 58 58 58 58 58 58 57 58 58 58 58 58 58 58 58 59 59 60 60 60 60 56 47 18 26 40 59 66 67 66 65 64 63 54 44 40 34 30 28 28 24 29 29 22 28 25 29 34 32 33 28 28 28 26 24 23 20 19 24 25 23 23 21 19 22 22 20 22 19 17 17 17 20 20 20 17 18 20 28 37
55 56 56 55 56 57 57 57 57 58 58 58 58 57 57 58 58 58 58 58 58 58 58 59 59 59 60 60 56 55 30 16 29 45 63 66 65 67 65 65 62 46 41 38 32 30 27 26 25 26 22 22 22 19 18 26 31 26 27 26 25 24 23 23 20 20 19 20 22 22 22 24 23 22 22 20 19 19 20 20 21 21 20 20 21 22 23 25
55 56 56 56 56 56 56 57 57 58 58 58 58 58 58 58 58 58 57 57 57 58 58 58 58 59 59 59 55 45 29 23 32 54 64 66 67 66 65 64 60 47 41 34 33 29 29 27 24 26 26 25 22 20 21 21 28 27 25 25 25 24 24 24 23 21 20 26 22 22 25 23 23 21 22 19 19 19 19 19 20 21 21 21 22 23 23 24
55 55 56 56 56 56 56 57 57 57 58 58 58 58 58 58 58 58 57 57 57 58 58 58 58 58 59 54 48 41 39 30 31 58 64 66 64 63 59 52 48 46 39 33 29 27 29 25 22 26 20 19 19 18 21 21 20 19 19 24 25 24 26 22 21 20 20 20 20 22 20 19 22 23 24 23 23 23 22 21 20 20 19 19 18 18 20 22
55 55 56 57 56 56 56 57 57 57 57 57 58 58 58 58 58 58 57 57 57 57 58 58 58 58 58 55 41 36 33 40 50 60 63 60 59 57 47 42 45 39 36 33 31 29 29 25 24 24 19 24 24 23 22 19 17 22 20 22 21 20 20 20 20 20 19 19 19 18 17 20 23 26 22 22 22 22 22 21 21 20 19 18 18 18 18 19
55 56 56 57 56 56 56 56 57 57 57 57 58 58 58 58 58 57 57 58 57 57 57 57 58 58 54 50 41 33 36 48 59 62 63 57 55 53 48 44 41 38 35 32 32 31 28 26 27 31 31 26 25 22 22 22 18 22 21 21 20 20 20 21 19 19 19 19 19 17 16 16 22 23 19 21 20 20 19 17 16 17 17 17 18 19 18 17
55 56 56 57 57 57 56 57 57 57 57 58 58 58 58 58 58 58 58 57 57 57 57 57 58 57 50 49 38 31 43 51 51 58 59 54 50 44 44 43 40 37 34 36 33 33 31 32 36 32 33 23 23 20 21 20 22 22 21 20 19 19 19 19 19 19 19 18 19 18 16 17 20 24 18 19 19 19 19 18 17 17 16 16 17 16 23 21
56 56 56 56 57 57 57 57 57 57 57 58 58 58 58 58 58 57 57 57 57 57 57 57 58 55 52 45 38 28 44 49 52 56 54 51 48 46 48 44 37 43 36 34 38 42 43 39 37 27 21 28 23 23 20 22 22 21 21 19 19 19 19 19 18 18 19 17 18 17 17 16 19 17 18 19 19 20 19 18 17 17 16 19 19 18 18 19
56 56 56 57 57 57 57 57 57 58 58 58 58 58 58 58 58 57 58 57 57 57 57 57 59 56 51 33 37 45 46 49 52 51 51 48 45 44 46 47 43 39 39 36 37 39 42 39 32 28 29 28 25 21 24 24 22 21 20 20 18 18 18 19 19 18 18 17 19 17 15 18 17 18 19 19 19 17 17 18 17 18 18 17 18 17 18 20
56 57 57 57 58 58 58 58 58 58 58 58 58 58 58 58 58 57 57 57 57 56 56 57 56 54 45 29 38 42 46 50 50 48 50 47 41 45 42 44 44 39 44 37 39 38 41 37 34 30 34 27 25 31 24 23 23 19 20 20 20 18 18 20 20 21 18 20 19 17 17 17 17 17 17 18 18 18 18 19 19 19 19 19 20 20 21 21
57 57 57 58 58 58 58 58 58 59 58 59 59 59 58 58 58 57 57 57 57 58 56 57 54 48 28 25 41 47 60 43 43 44 49 43 44 42 43 42 41 39 34 39 39 40 36 37 32 27 25 28 30 25 23 20 20 20 17 20 25 18 20 20 21 22 19 19 19 17 21 16 16 16 17 17 18 19 18 18 18 19 18 18 19 18 19 26
57 58 58 58 58 58 58 58 58 59 59 59 59 59 59 59 57 56 56 55 54 56 55 53 52 51 29 24 34 53 45 38 39 45 41 48 46 40 44 42 39 35 34 31 35 31 30 35 27 26 28 27 23 21 22 23 25 24 18 22 21 23 20 20 21 21 21 18 19 16 17 18 17 17 17 18 19 18 17 17 17 17 17 19 18 19 27 33
57 58 58 58 58 58 58 58 58 58 59 59 59 59 59 57 55 56 57 58 56 56 54 50 50 46 25 34 37 33 40 42 41 46 41 41 42 40 36 37 35 34 33 34 35 34 30 28 30 28 31 25 22 26 21 23 21 22 24 19 25 20 22 21 23 23 23 17 15 16 16 17 17 18 18 18 18 17 17 17 17 18 19 19 22 28 33 33
58 58 58 58 58 58 58 58 58 59 59 59 59 59 57 57 57 56 56 56 56 55 54 56 48 38 33 33 31 29 42 38 43 44 44 41 37 35 33 31 33 31 31 29 32 28 30 27 26 26 27 29 22 22 21 19 21 23 24 24 23 24 22 21 22 22 20 18 17 17 16 15 16 16 17 17 18 17 17 19 20 20 20 21 29 33 32 33
58 58 58 58 58 58 58 58 59 59 59 59 59 57 56 54 55 54 54 54 46 43 39 37 35 30 30 30 32 34 43 45 43 40 37 39 41 37 37 32 33 28 30 27 29 26 29 31 29 25 23 24 21 20 19 22 23 22 23 23 23 23 22 21 21 23 23 21 20 20 20 20 20 19 20 21 21 20 21 21 21 20 20 29 32 32 32 33
58 58 58 58 58 58 58 59 59 59 59 57 55 53 52 48 47 43 44 49 41 38 39 37 35 35 35 38 41 41 43 42 33 37 42 40 35 33 33 31 37 30 27 28 32 26 32 25 24 23 23 23 23 21 20 20 21 21 25 25 22 23 23 24 23 23 23 21 20 21 22 22 22 21 21 21 22 23 21 21 21 20 26 31 31 32 32 33
58 58 58 58 58 58 58 59 59 59 59 57 54 50 44 44 42 42 44 43 43 43 40 40 40 38 39 43 42 37 37 37 37 39 39 41 33 32 31 29 32 30 29 32 29 32 27 26 26 26 24 24 24 23 22 21 21 20 23 24 23 26 22 23 22 23 23 23 23 23 22 22 22 22 22 23 22 22 22 22 22 26 30 31 31 32 32 33
58 58 58 58 58 58 59 59 59 59 58 56 52 45 45 43 45 46 43 40 44 45 45 45 45 44 45 44 42 39 41 38 34 40 40 38 32 30 30 28 28 27 31 30 30 26 25 25 25 27 27 26 25 25 24 24 24 26 25 25 25 24 28 24 23 24 23 26 22 24 23 23 23 23 23 23 23 23 23 25 25 30 30 30 31 32 32 32
58 58 59 58 58 59 59 59 59 59 57 52 49 48 46 47 48 48 43 40 40 43 42 41 40 41 41 41 37 39 36 35 36 38 37 38 31 31 29 27 28 28 33 27 27 28 25 30 27 27 28 27 26 26 25 26 29 26 25 24 23 26 24 23 24 25 26 25 26 25 24 24 24 24 24 24 24 24 31 33 33 32 31 32 32 32 32 32
58 58 58 58 59 59 59 59 59 56 52 50 49 48 48 48 48 44 42 38 38 40 41 42 41 41 39 38 39 37 37 37 37 37 38 33 30 33 33 28 28 29 28 28 27 27 26 28 27 27 27 27 25 25 25 24 24 29 28 26 25 27 26 25 22 28 27 27 30 22 23 25 25 23 24 24 24 26 30 30 32 33 34 34 34 34 33 32
58 58 58 58 58 59 58 59 55 53 52 50 48 48 48 47 47 47 42 38 38 39 44 43 45 43 39 44 44 37 37 37 37 34 37 32 30 31 31 32 28 27 27 28 27 29 28 29 32 29 30 28 28 26 27 29 25 28 31 28 27 28 28 31 32 26 25 25 28 24 20 23 26 26 24 24 23 26 27 29 30 30 31 32 32 32 32 33
58 58 58 58 58 58 59 55 53 53 53 50 50 49 49 48 48 46 39 34 31 36 41 38 44 38 42 34 41 40 35 33 34 36 38 35 36 32 31 31 31 29 29 30 29 31 28 29 30 29 29 31 30 28 30 29 27 25 25 34 33 31 30 30 29 26 22 19 25 27 19 19 21 20 21 21 23 25 27 29 30 30 30 30 31 31 31 31
57 57 58 58 58 59 56 52 54 54 52 50 50 50 49 48 49 45 37 31 29 38 38 39 38 38 40 35 35 37 30 34 32 32 32 37 32 32 28 28 31 30 29 31 31 28 30 28 30 31 31 30 29 27 29 28 27 25 30 34 33 28 26 27 26 25 25 27 28 26 24 20 21 23 23 24 23 24 26 28 29 29 29 29 29 29 30 30
56 56 57 58 58 58 56 56 55 53 52 51 51 50 48 48 48 46 35 29 28 37 33 32 37 39 37 31 37 33 27 31 31 31 32 33 32 30 30 29 29 30 28 30 27 33 28 30 29 28 28 27 27 28 31 32 28 27 32 30 28 27 28 28 25 24 25 23 23 24 25 21 21 24 25 24 23 25 25 27 28 28 28 28 28 29 28 28
54 55 56 57 58 58 58 56 55 54 54 53 52 50 50 48 46 38 31 29 34 35 35 31 38 35 32 32 31 29 24 25 23 29 36 33 35 30 29 30 29 27 26 29 28 31 31 32 31 31 30 26 30 30 32 33 28 31 33 30 31 29 29 28 24 24 24 20 18 22 26 18 20 26 26 23 23 24 26 27 27 28 28 28 28 28 28 28
52 53 57 58 57 57 56 56 55 55 53 52 52 51 50 47 43 36 29 27 34 30 31 32 33 31 30 27 27 28 23 25 28 30 32 30 32 31 30 29 26 26 28 31 29 31 33 31 32 30 29 29 29 32 35 35 32 34 32 29 29 27 28 26 25 24 21 16 21 24 27 22 17 23 25 23 25 24 26 27 27 27 28 27 27 26 27 27
50 51 52 55 56 56 56 54 55 53 53 52 51 50 50 46 37 32 28 33 37 38 32 31 29 32 26 27 26 26 28 26 29 30 28 29 29 29 29 26 30 28 27 27 25 29 29 29 27 30 33 31 33 30 33 34 33 29 25 24 24 25 25 24 22 23 18 16 22 25 25 25 17 20 23 23 25 25 27 26 26 26 27 27 27 26 26 26
48 49 50 53 53 54 54 53 54 53 52 52 53 52 48 36 39 30 29 34 32 36 33 33 33 31 27 31 32 25 26 25 28 27 27 27 28 28 27 27 26 23 25 24 24 29 27 28 29 31 34 29 29 27 28 32 30 27 25 24 18 19 19 14 17 14 15 17 22 23 26 24 23 23 23 25 25 26 27 26 26 26 26 26 27 27 27 27
47 48 51 51 53 54 55 54 53 52 51 52 52 47 38 32 25 33 32 35 32 37 35 38 34 32 32 31 31 32 32 26 27 25 30 30 28 29 31 28 32 27 23 27 25 26 27 30 30 30 31 32 30 24 25 25 27 25 23 22 20 15 12 9 11 15 13 18 22 21 23 19 24 26 27 26 26 27 27 27 27 26 26 26 27 27 27 28
47 48 51 53 53 53 54 53 53 53 52 52 48 41 36 31 28 38 33 34 35 39 37 35 32 31 31 28 33 32 28 34 26 25 28 28 28 27 29 30 30 29 28 27 24 24 22 25 28 30 28 33 29 26 28 28 26 24 27 25 23 20 14 12 11 11 13 17 20 23 17 17 16 22 27 27 27 27 27 27 27 27 27 27 27 27 27 27
47 48 49 50 51 53 54 54 52 53 53 49 44 39 32 30 30 30 30 32 34 33 35 34 35 33 32 31 33 34 32 29 29 28 27 29 28 27 29 29 30 29 32 27 29 25 26 26 29 33 32 31 30 33 34 31 27 27 28 28 22 23 25 21 21 18 17 18 19 18 19 22 22 27 27 27 27 26 27 26 26 26 26 27 26 27 27 27
47 47 48 46 49 50 54 53 53 52 51 47 41 35 32 32 29 32 32 35 34 33 33 36 35 31 30 29 33 32 36 30 32 29 30 29 30 28 32 32 30 29 29 28 27 23 24 22 30 32 32 29 30 31 32 30 21 26 27 23 28 30 26 23 24 23 21 19 20 19 22 25 24 24 25 25 25 25 25 25 25 25 27 27 27 27 27 28
44 45 44 46 46 51 54 54 53 51 50 45 38 32 34 33 34 35 39 34 34 32 34 29 33 30 31 30 29 32 33 32 31 29 27 31 28 31 30 32 33 33 30 29 28 31 25 27 31 28 27 31 30 31 30 33 31 26 22 25 29 30 29 23 19 19 17 18 17 18 16 19 20 18 23 23 24 24 25 25 25 27 27 26 28 28 28 28
43 43 43 44 46 52 54 54 53 51 48 45 37 34 35 34 36 34 36 37 34 34 32 30 31 32 30 29 28 30 34 29 31 29 28 30 26 34 33 31 33 32 32 33 27 29 30 23 28 29 31 32 32 31 28 31 32 27 26 30 24 21 22 23 22 17 16 15 14 19 21 21 21 22 22 22 23 23 24 25 26 26 26 27 28 28 28 27
40 40 35 42 44 53 54 54 53 51 47 40 36 35 36 34 35 36 35 35 38 36 32 33 31 31 31 27 29 30 33 28 30 29 27 28 26 34 35 34 32 36 34 34 30 31 30 23 25 32 31 32 30 29 24 26 30 31 31 27 28 24 21 20 23 21 21 19 17 13 19 19 23 24 23 22 22 24 24 25 25 25 26 26 27 27 28 28
39 36 33 47 50 53 54 53 51 48 44 35 35 34 35 34 35 35 37 36 37 34 33 33 34 31 32 31 31 29 32 33 31 31 30 33 30 37 33 39 33 34 35 35 31 36 27 31 22 27 31 31 27 27 26 26 23 24 24 23 24 24 27 27 23 22 21 18 21 21 20 24 28 27 25 23 23 25 26 26 27 28 29 32 32 32 31 30
40 38 39 48 51 54 52 50 45 40 38 37 36 33 34 33 40 40 37 37 38 41 36 34 34 32 32 31 31 32 30 31 32 31 31 32 31 28 37 38 38 33 35 33 33 31 24 26 27 26 26 26 28 30 30 31 32 28 25 24 25 24 21 21 21 26 25 24 22 22 21 23 27 29 26 25 27 29 31 30 31 30 32 31 33 32 29 28
34 22 36 49 51 52 47 39 39 40 37 35 33 35 33 36 34 37 39 41 38 37 40 37 37 35 35 35 33 33 32 32 32 31 32 31 33 31 36 37 38 37 33 29 30 35 31 31 29 27 28 29 30 33 34 33 32 32 31 29 28 26 27 23 22 23 24 24 24 24 23 23 30 31 28 28 27 27 30 32 31 27 28 29 28 28 28 27
34 28 47 48 48 50 41 34 37 37 37 37 39 38 39 37 36 37 37 39 37 39 37 37 36 35 35 34 34 32 33 31 33 32 32 33 33 33 34 36 37 35 34 30 34 34 36 28 28 29 30 31 31 32 31 32 31 30 30 30 30 27 28 25 24 25 23 25 25 24 22 26 33 34 31 28 28 30 32 32 32 29 27 27 27 25 25 24
35 40 43 46 49 48 37 28 31 34 35 37 37 37 39 38 38 37 37 39 37 38 37 37 37 36 35 36 34 32 34 29 32 33 31 33 31 35 35 36 37 33 33 32 32 32 27 27 29 25 24 23 22 22 26 28 30 27 27 28 31 31 29 29 30 28 26 27 26 24 18 25 33 35 32 32 30 31 26 26 26 26 26 26 24 24 24 22
35 37 42 43 45 45 37 34 30 31 33 34 34 34 35 36 37 37 38 37 39 37 35 35 37 36 36 35 34 34 34 32 29 32 32 32 32 34 34 36 34 32 35 34 37 34 28 27 26 20 20 17 12 9 9 19 25 27 28 28 28 28 26 23 22 25 24 28 27 24 21 26 33 33 31 32 30 27 25 24 24 24 25 23 23 23 22 22
31 26 37 39 43 43 42 42 40 37 32 33 33 33 34 34 35 37 38 37 38 37 35 36 36 36 33 32 31 31 31 34 32 28 30 31 32 33 33 34 35 34 35 37 35 31 24 27 26 23 22 21 21 19 23 27 25 23 23 23 25 25 26 25 23 22 21 21 22 22 22 22 23 23 24 23 23 23 24 25 24 22 23 24 23 23 23 22
31 23 33 32 40 41 39 42 40 39 35 35 31 32 32 33 33 33 38 33 37 36 36 35 35 33 32 32 31 31 32 31 32 31 31 31 33 33 34 32 33 34 37 33 32 25 25 24 26 26 24 25 25 26 26 27 25 25 23 24 24 23 21 19 20 20 19 20 18 21 22 19 22 22 22 23 23 23 22 22 23 22 23 24 24 23 30 23
24 25 34 36 35 32 35 36 40 39 38 38 35 36 33 32 32 30 36 37 38 36 34 32 36 36 35 33 32 28 30 30 31 29 31 30 32 32 30 32 30 33 33 29 32 28 25 23 22 27 25 27 26 26 25 24 24 23 22 22 22 23 20 18 16 22 20 20 19 20 20 18 20 22 23 24 23 23 21 21 20 20 23 24 22 22 18 16
29 28 27 30 28 30 36 37 39 38 38 38 36 36 33 32 31 32 34 35 35 33 35 30 30 34 35 34 33 30 30 26 25 27 28 25 27 25 26 30 30 30 28 26 27 26 18 13 19 19 17 18 21 22 24 23 22 22 22 21 21 21 21 20 20 21 21 19 21 21 21 21 22 21 21 21 23 21 19 19 17 14 13 15 12 12 11 11
26 25 23 30 30 28 32 36 37 38 35 37 34 35 35 33 31 32 34 34 32 32 36 33 29 31 32 32 32 31 30 29 26 26 27 24 24 24 24 29 26 26 25 25 25 26 23 15 23 19 13 9 13 22 22 20 21 18 20 21 22 22 22 22 22 21 21 21 21 21 21 20 21 23 23 22 18 13 11 9 10 12 13 12 9 9 11 11
30 32 31 27 24 25 28 29 35 36 34 35 34 34 34 33 32 32 31 34 32 32 34 33 32 30 30 29 30 30 29 27 25 25 26 24 25 26 23 21 27 23 24 22 23 23 22 14 17 13 12 7 10 17 19 18 19 19 18 18 17 17 17 18 18 19 18 18 18 18 17 18 19 21 18 15 12 11 11 11 10 12 12 10 9 10 12 13
30 30 32 28 22 31 27 25 30 33 31 34 34 34 32 32 32 31 29 32 32 33 34 34 32 31 30 29 28 29 31 30 30 31 29 27 28 27 27 26 27 26 20 21 23 20 19 17 15 12 12 10 14 15 15 15 15 15 16 17 17 17 18 18 19 20 19 19 17 15 16 17 21 22 16 13 10 10 9 9 10 11 12 10 10 12 13 14